TimeCDT,TemperatureF,Dew PointF,Humidity,Sea Level PressureIn,VisibilityMPH,Wind Direction,Wind SpeedMPH,Gust SpeedMPH,PrecipitationIn,Events,Conditions,WindDirDegrees,DateUTC
12:52 AM,54.0,52.0,93,30.15,10.0,Calm,Calm,-,N/A,,Clear,0,2013-08-16 05:52:00
1:52 AM,53.1,51.1,93,30.15,10.0,Calm,Calm,-,N/A,,Clear,0,2013-08-16 06:52:00
2:52 AM,53.1,50.0,89,30.15,10.0,Calm,Calm,-,N/A,,Clear,0,2013-08-16 07:52:00
3:52 AM,53.1,50.0,89,30.15,10.0,Calm,Calm,-,N/A,,Clear,0,2013-08-16 08:52:00
4:52 AM,52.0,50.0,93,30.16,10.0,Calm,Calm,-,N/A,,Clear,0,2013-08-16 09:52:00
5:52 AM,51.1,48.9,92,30.17,10.0,Calm,Calm,-,N/A,,Clear,0,2013-08-16 10:52:00
6:52 AM,52.0,50.0,93,30.18,10.0,Calm,Calm,-,N/A,,Clear,0,2013-08-16 11:52:00
7:52 AM,59.0,55.9,90,30.19,10.0,Calm,Calm,-,N/A,,Scattered Clouds,0,2013-08-16 12:52:00
8:30 AM,62.6,57.2,82,30.20,10.0,Calm,Calm,-,N/A,,Clear,0,2013-08-16 13:30:00
8:52 AM,64.0,57.9,80,30.19,9.0,Calm,Calm,-,N/A,,Clear,0,2013-08-16 13:52:00
9:52 AM,72.0,55.9,57,30.19,10.0,NNW,3.5,-,N/A,,Clear,330,2013-08-16 14:52:00
10:52 AM,75.0,53.1,46,30.19,10.0,Variable,3.5,-,N/A,,Clear,0,2013-08-16 15:52:00
11:52 AM,78.1,53.1,42,30.19,10.0,NE,8.1,-,N/A,,Clear,40,2013-08-16 16:52:00
12:52 PM,79.0,53.1,40,30.18,10.0,Variable,6.9,-,N/A,,Mostly Cloudy,0,2013-08-16 17:52:00
1:52 PM,80.1,52.0,38,30.17,10.0,NE,3.5,-,N/A,,Mostly Cloudy,40,2013-08-16 18:52:00
2:52 PM,77.0,52.0,42,30.16,10.0,NE,5.8,-,N/A,,Overcast,40,2013-08-16 19:52:00
3:52 PM,81.0,50.0,34,30.15,10.0,NE,3.5,-,N/A,,Partly Cloudy,50,2013-08-16 20:52:00
4:52 PM,77.0,52.0,42,30.15,10.0,ENE,10.4,-,N/A,,Mostly Cloudy,60,2013-08-16 21:52:00
5:52 PM,78.1,53.1,42,30.14,10.0,Variable,3.5,-,N/A,,Clear,0,2013-08-16 22:52:00
6:52 PM,73.0,57.0,57,30.14,10.0,SE,4.6,-,N/A,,Clear,140,2013-08-16 23:52:00
7:52 PM,68.0,59.0,73,30.15,10.0,Calm,Calm,-,N/A,,Clear,0,2013-08-17 00:52:00
8:52 PM,63.0,57.9,84,30.16,10.0,Calm,Calm,-,N/A,,Scattered Clouds,0,2013-08-17 01:52:00
9:52 PM,62.1,57.0,84,30.17,10.0,Calm,Calm,-,N/A,,Clear,0,2013-08-17 02:52:00
10:52 PM,59.0,57.0,93,30.17,10.0,Calm,Calm,-,N/A,,Clear,0,2013-08-17 03:52:00
11:52 PM,57.9,55.0,90,30.17,10.0,Calm,Calm,-,N/A,,Clear,0,2013-08-17 04:52:00